Location: Ffald-y-Brenin
(52.0833°N, 4.0000°W)
Time: 07:11:55
(UTC+00:00)

Meteor 2-10 Rocket - Pass Details

Date: 18 February 2020
Orbit: 734 x 885 km, 81.2° (Epoch: 30 March)

Event Time Altitude Azimuth Distance (km) Brightness Sun altitude
Exits shadow 05:45:11 25° 251° (WSW) 1,559 4.5 -16.2°
Maximum altitude 05:47:19 34° 293° (WNW) 1,272 4.2 -15.8°
Drops below altitude 10° 05:52:01 10° 359° (N) 2,302 6.0 -15.1°
Sets 05:54:33 0° 8° (N) 3,214 6.8 -14.7°
